sat.trackr.live / text

‹ back to catalog

RASSVET-3 15

NORAD 68374 · 2026-061Q

PAYLOAD ACTIVE UNKNOWN

§ Identity

Operator
Country
CIS
Launch date
2026-03-23
Launch site
PLMSC
Launch vehicle
Mass (kg)
RCS (m²)

External: N2YO · Heavens-Above · Gunter

§ Orbital elements

Epoch: 2026-09-19T07:58:54.253632Z

Period
94.81 min
Inclination
82.2918°
Eccentricity
0.0002264
Mean motion
15.18878892 rev/d
Perigee alt
507.7 km
Apogee alt
510.8 km
Semi-major
6,887.4 km
B*
9.5252e-5
RAAN
275.2244°
Arg perigee
95.9101°
Mean anomaly
264.2391°
Rev number
2,791

§ Raw data

RASSVET-3 151 68374U 26061Q   26262.33257238  .00002016  00000+0  95252-4 0  99992 68374  82.2918 275.2244 0002264  95.9101 264.2391 15.18878892 27918

JSON: /api/v1/satellites/68374 · /tle

For live sub-satellite position, see the globe view (requires WebGL).

§ Visibility from observer

Set your observer location to see the next 7 days of passes ≥ 10°. The values pass through the URL so the page stays shareable.

No JS? Fill the form by hand. The geolocation button needs JavaScript.